Weather History for Honolulu, HI

Change the Weather History Date:

Thursday, July 4, 2013

  Actual Average Record
Temperature  
Mean Temperature 79 °F 81 °F  
Max Temperature 87 °F 88 °F 91 °F (1991)
Min Temperature 71 °F 74 °F 70 °F (1958)
Degree Days  
Heating Degree Days 0 0  
Month to date heating degree days 0 0  
Since 1 June heating degree days 0 0  
Since 1 July heating degree days 0 0  
Cooling Degree Days 14 16  
Month to date cooling degree days 54 64  
Year to date cooling degree days 1923 2022  
Since 1 June cooling degree days 463 520  
Growing Degree Days 29 (Base 50)    
Moisture  
Dew Point 64 °F    
Average Humidity 62    
Maximum Humidity 79    
Minimum Humidity 45    
Precipitation  
Precipitation 0.00 in 0.01 in 0.12 in (1953)
Month to date precipitation 0.02 0.04  
Year to date precipitation 8.65 7.87  
Snow  
Snow 0.00 in - - ()
Month to date snowfall 0.0  
Since 1 June snowfall 0.0  
Since 1 July snowfall 0.0  
Snow Depth 0.00 in    
Sea Level Pressure  
Sea Level Pressure 30.00 in    
Wind  
Wind Speed 8 mph (NNE)    
Max Wind Speed 17 mph    
Max Gust Speed 24 mph    
Visibility 10 miles    
Events      
T = Trace of Precipitation, MM = Missing Value Source: NWS Daily Summary

Daily Weather History Graph

Daily Weather History Graph

Search for Another Location

Airport:

Trip Planner

Search our weather history database for the weather conditions in past years. The results will help you decide how hot, cold, wet, or windy it might be!

Date:

Astronomy

Jul. 04, 2013 Rise Set
Actual Time 5:54 AM HST 7:17 PM HST
Civil Twilight 5:29 AM HST 7:42 PM HST
Nautical Twilight 5:00 AM HST 8:12 PM HST
Astronomical Twilight 4:29 AM HST 8:42 PM HST
Moon 3:10 AM HST (7/4) 4:38 PM HST (7/4)
Length of Visible Light 14h 12m
Length of Day
13h 23m
Waning Crescent, 10% of the Moon is Illuminated
Jul 4
Waning Crescent
Jul 7
New
Jul 15
First Quarter
Jul 22
Full
Jul 29
Last Quarter

Hourly Weather History & Observations

Time (HST) Temp. Heat Index Dew Point Humidity Pressure Visibility Wind Dir Wind Speed Gust Speed Precip Events Conditions
12:53 AM 73.9 °F - 64.0 °F 71% 30.00 in 10.0 mi NNE 4.6 mph - N/A   Partly Cloudy
1:53 AM 73.9 °F - 63.0 °F 68% 29.99 in 10.0 mi Calm Calm - N/A   Partly Cloudy
2:53 AM 73.0 °F - 64.0 °F 73% 29.97 in 10.0 mi North 4.6 mph - N/A   Partly Cloudy
3:53 AM 73.0 °F - 64.0 °F 73% 29.97 in 10.0 mi NNW 5.8 mph - N/A   Partly Cloudy
4:53 AM 72.0 °F - 64.0 °F 76% 29.97 in 10.0 mi NW 4.6 mph - N/A   Partly Cloudy
5:53 AM 72.0 °F - 64.0 °F 76% 29.98 in 10.0 mi Calm Calm - N/A   Scattered Clouds
6:53 AM 73.9 °F - 64.9 °F 73% 30.00 in 10.0 mi NW 4.6 mph - N/A   Scattered Clouds
7:53 AM 78.1 °F - 64.0 °F 62% 30.01 in 10.0 mi Variable 6.9 mph 18.4 mph N/A   Scattered Clouds
8:53 AM 80.1 °F 81.7 °F 64.0 °F 58% 30.02 in 10.0 mi East 11.5 mph - N/A   Scattered Clouds
9:53 AM 82.0 °F 83.1 °F 63.0 °F 52% 30.02 in 10.0 mi ESE 6.9 mph - N/A   Mostly Cloudy
10:53 AM 84.0 °F 85.4 °F 64.0 °F 51% 30.01 in 10.0 mi NE 10.4 mph 19.6 mph N/A   Mostly Cloudy
11:53 AM 84.9 °F 85.4 °F 62.1 °F 46% 30.00 in 10.0 mi NE 15.0 mph - N/A   Mostly Cloudy
12:53 PM 86.0 °F 87.3 °F 64.0 °F 48% 30.00 in 10.0 mi ENE 13.8 mph - N/A   Scattered Clouds
1:53 PM 86.0 °F 86.8 °F 63.0 °F 46% 29.99 in 10.0 mi NNE 12.7 mph 20.7 mph N/A   Scattered Clouds
2:53 PM 86.0 °F 87.3 °F 64.0 °F 48% 29.98 in 10.0 mi NE 15.0 mph - N/A   Mostly Cloudy
3:53 PM 84.0 °F 84.9 °F 63.0 °F 49% 29.97 in 10.0 mi NE 15.0 mph - N/A   Scattered Clouds
4:53 PM 82.9 °F 84.0 °F 63.0 °F 51% 29.97 in 10.0 mi NE 15.0 mph - N/A   Scattered Clouds
5:53 PM 82.0 °F 83.1 °F 63.0 °F 52% 29.98 in 10.0 mi NE 13.8 mph - N/A   Scattered Clouds
6:53 PM 78.1 °F - 63.0 °F 60% 29.99 in 10.0 mi NE 11.5 mph - N/A   Partly Cloudy
7:53 PM 77.0 °F - 64.9 °F 66% 30.01 in 10.0 mi NE 11.5 mph - N/A   Partly Cloudy
8:53 PM 75.9 °F - 64.9 °F 69% 30.02 in 10.0 mi NE 12.7 mph - N/A   Scattered Clouds
9:53 PM 75.9 °F - 64.0 °F 67% 30.04 in 10.0 mi Calm Calm - N/A   Scattered Clouds
10:53 PM 75.0 °F - 64.0 °F 69% 30.05 in 10.0 mi NNE 5.8 mph - N/A   Partly Cloudy
11:53 PM 75.0 °F - 64.0 °F 69% 30.04 in 10.0 mi Calm Calm - N/A   Partly Cloudy